WV5G-13 Weather Reports


Display with metric or nautical units.
time (UTC)temp
F
wind
direction
speed
MPH
gust
MPH
rain 1hr
in
rain 24hr
in
rain mn
in
humidity
%
barometer
mb
20260509005758 77 36 10.0 12.0 0.00 0.00 0.00 25 1008.9
20260509005256 77 25 10.0 15.0 0.00 0.00 0.00 25 1009.0
20260509004755 78 4 12.0 13.0 0.00 0.00 0.00 24 1008.8
20260509004253 78 22 6.0 17.0 0.00 0.00 0.00 24 1009.0
20260509003751 78 27 7.0 14.0 0.00 0.00 0.00 24 1008.8
20260509003248 79 28 10.0 11.0 0.00 0.00 0.00 24 1008.8
20260509002745 79 8 9.0 15.0 0.00 0.00 0.00 23 1008.9
20260509002243 80 20 6.0 9.0 0.00 0.00 0.00 22 1008.8
20260509001740 80 16 7.0 13.0 0.00 0.00 0.00 23 1008.9
20260509001236 80 0 10.0 17.0 0.00 0.00 0.00 23 1008.8
20260509000734 80 11 13.0 13.0 0.00 0.00 0.00 23 1008.9
20260509000233 80 12 12.0 17.0 0.00 0.00 0.00 23 1008.7
20260508235728 80 355 6.0 16.0 0.00 0.00 0.00 23 1008.6
20260508235224 80 358 10.0 15.0 0.00 0.00 0.00 23 1008.6
20260508234722 81 358 6.0 12.0 0.00 0.00 0.00 23 1008.6
20260508234218 81 24 7.0 14.0 0.00 0.00 0.00 22 1008.7
20260508233712 81 6 10.0 21.0 0.00 0.00 0.00 22 1008.8
20260508233209 81 315 5.0 13.0 0.00 0.00 0.00 23 1008.6
20260508232706 81 2 8.0 18.0 0.00 0.00 0.00 22 1008.7
20260508232203 81 6 15.0 17.0 0.00 0.00 0.00 22 1008.5
20260508231701 81 24 11.0 20.0 0.00 0.00 0.00 22 1008.6
20260508231157 81 356 9.0 14.0 0.00 0.00 0.00 23 1008.6
20260508230654 82 4 17.0 22.0 0.00 0.00 0.00 22 1008.6
20260508230150 81 344 9.0 20.0 0.00 0.00 0.00 23 1008.6
20260508225649 82 342 14.0 19.0 0.00 0.00 0.00 22 1008.6
20260508225144 82 354 9.0 20.0 0.00 0.00 0.00 22 1008.7
20260508224643 81 341 5.0 13.0 0.00 0.00 0.00 23 1008.5
20260508224140 81 10 5.0 16.0 0.00 0.00 0.00 22 1008.7
20260508223638 82 14 7.0 17.0 0.00 0.00 0.00 21 1008.5
20260508223134 81 341 5.0 16.0 0.00 0.00 0.00 23 1008.5
20260508222632 81 335 10.0 19.0 0.00 0.00 0.00 22 1008.7
20260508222129 82 22 6.0 21.0 0.00 0.00 0.00 21 1008.3
20260508221625 82 351 8.0 17.0 0.00 0.00 0.00 22 1008.2
20260508221121 81 342 10.0 14.0 0.00 0.00 0.00 22 1008.7
20260508220618 82 10 8.0 20.0 0.00 0.00 0.00 20 1008.3
20260508220114 82 11 16.0 26.0 0.00 0.00 0.00 21 1008.5
20260508215611 82 0 10.0 17.0 0.00 0.00 0.00 22 1008.5
20260508215107 83 10 15.0 23.0 0.00 0.00 0.00 22 1008.6
20260508214605 82 352 14.0 23.0 0.00 0.00 0.00 22 1008.1
20260508214101 83 0 10.0 22.0 0.00 0.00 0.00 22 1008.6
20260508213558 82 12 12.0 17.0 0.00 0.00 0.00 22 1008.6
20260508213054 82 9 18.0 24.0 0.00 0.00 0.00 22 1008.6
20260508212551 82 5 13.0 27.0 0.00 0.00 0.00 22 1008.8
20260508212047 82 25 12.0 24.0 0.00 0.00 0.00 21 1008.8
20260508211543 82 18 15.0 21.0 0.00 0.00 0.00 21 1008.7
20260508211039 82 14 19.0 26.0 0.00 0.00 0.00 22 1008.8
20260508210536 82 349 9.0 18.0 0.00 0.00 0.00 22 1008.7
20260508210034 82 3 15.0 27.0 0.00 0.00 0.00 22 1008.3
20260508205530 84 347 15.0 19.0 0.00 0.00 0.00 20 1008.7
20260508205026 82 14 12.0 28.0 0.00 0.00 0.00 21 1008.6
20260508204524 83 356 7.0 19.0 0.00 0.00 0.00 21 1008.7
20260508204019 82 14 10.0 22.0 0.00 0.00 0.00 20 1008.5
20260508203515 82 335 8.0 21.0 0.00 0.00 0.00 22 1008.9
20260508203011 83 0 11.0 23.0 0.00 0.00 0.00 21 1008.7
20260508202508 82 357 17.0 25.0 0.00 0.00 0.00 20 1008.9
20260508202006 82 12 7.0 20.0 0.00 0.00 0.00 20 1008.7
20260508201502 83 357 9.0 28.0 0.00 0.00 0.00 20 1008.7
20260508200959 82 332 5.0 17.0 0.00 0.00 0.00 21 1008.8
20260508200456 82 352 15.0 20.0 0.00 0.00 0.00 21 1008.9
20260508195950 82 21 14.0 21.0 0.00 0.00 0.00 20 1008.7
20260508195448 82 10 17.0 24.0 0.00 0.00 0.00 20 1008.9
20260508194944 83 3 13.0 19.0 0.00 0.00 0.00 20 1008.8
20260508194442 82 356 15.0 17.0 0.00 0.00 0.00 22 1008.8
20260508193939 82 27 11.0 12.0 0.00 0.00 0.00 22 1008.7
20260508193435 82 18 13.0 21.0 0.00 0.00 0.00 23 1009.1
20260508192932 82 334 15.0 18.0 0.00 0.00 0.00 24 1008.8
20260508192429 82 357 10.0 19.0 0.00 0.00 0.00 25 1008.7
20260508191926 81 306 8.0 19.0 0.00 0.00 0.00 26 1008.9
20260508191423 81 344 8.0 15.0 0.00 0.00 0.00 26 1008.9
20260508190920 81 358 12.0 18.0 0.00 0.00 0.00 25 1008.9
20260508190417 81 352 11.0 22.0 0.00 0.00 0.00 25 1008.9
20260508185913 79 328 5.0 15.0 0.00 0.00 0.00 26 1008.9
20260508185410 80 313 7.0 16.0 0.00 0.00 0.00 25 1009.0
20260508184908 79 356 6.0 13.0 0.00 0.00 0.00 26 1009.1
20260508184405 78 298 7.0 13.0 0.00 0.00 0.00 25 1009.1
20260508183901 79 331 7.0 17.0 0.00 0.00 0.00 25 1009.1
20260508183358 79 8 9.0 14.0 0.00 0.00 0.00 25 1009.2
20260508182848 79 297 4.0 11.0 0.00 0.00 0.00 25 1009.2
20260508182345 79 332 7.0 10.0 0.00 0.00 0.00 28 1009.1
20260508181840 79 4 10.0 10.0 0.00 0.00 0.00 29 1009.3
20260508181338 78 310 10.0 12.0 0.00 0.00 0.00 28 1009.2
20260508180835 78 302 5.0 9.0 0.00 0.00 0.00 29 1009.3
20260508180331 78 313 10.0 13.0 0.00 0.00 0.00 28 1009.3
20260508175828 77 335 3.0 13.0 0.00 0.00 0.00 25 1009.2
20260508175324 79 320 6.0 13.0 0.00 0.00 0.00 27 1009.2
20260508174823 76 313 5.0 12.0 0.00 0.00 0.00 29 1009.6
20260508174320 77 306 1.0 9.0 0.00 0.00 0.00 28 1009.3
20260508173816 78 346 4.0 8.0 0.00 0.00 0.00 29 1009.6
20260508173313 76 207 5.0 7.0 0.00 0.00 0.00 29 1009.7
20260508172809 75 348 5.0 7.0 0.00 0.00 0.00 29 1009.7
20260508172307 75 271 3.0 8.0 0.00 0.00 0.00 30 1009.7
20260508171803 77 321 7.0 10.0 0.00 0.00 0.00 29 1009.8
20260508171259 75 298 4.0 11.0 0.00 0.00 0.00 31 1009.7
20260508170755 75 241 2.0 4.0 0.00 0.00 0.00 30 1009.7
20260508170254 74 292 5.0 12.0 0.00 0.00 0.00 31 1009.8
20260508165750 74 264 5.0 14.0 0.00 0.00 0.00 33 1009.8
20260508165248 74 325 4.0 15.0 0.00 0.00 0.00 33 1010.0
20260508164743 73 311 4.0 8.0 0.00 0.00 0.00 33 1010.0
20260508164240 74 252 6.0 11.0 0.00 0.00 0.00 35 1010.0
20260508163738 73 273 8.0 13.0 0.00 0.00 0.00 34 1010.1
20260508163236 73 291 6.0 12.0 0.00 0.00 0.00 37 1010.1
20260508162731 73 247 14.0 20.0 0.00 0.00 0.00 38 1010.2
20260508162228 72 245 4.0 11.0 0.00 0.00 0.00 37 1010.1
20260508161725 71 269 3.0 11.0 0.00 0.00 0.00 39 1010.2
20260508161223 71 243 8.0 14.0 0.00 0.00 0.00 37 1010.3
20260508160721 71 240 13.0 16.0 0.00 0.00 0.00 40 1010.3
20260508160219 72 246 5.0 12.0 0.00 0.00 0.00 41 1010.3
20260508155715 71 248 9.0 18.0 0.00 0.00 0.00 41 1010.5
20260508155212 71 267 7.0 16.0 0.00 0.00 0.00 41 1010.3
20260508154709 70 245 10.0 18.0 0.00 0.00 0.00 42 1010.3
20260508154206 71 266 8.0 14.0 0.00 0.00 0.00 43 1010.2
20260508153702 70 256 7.0 14.0 0.00 0.00 0.00 44 1010.3
20260508153200 70 314 10.0 11.0 0.00 0.00 0.00 45 1010.5
20260508152656 69 224 14.0 20.0 0.00 0.00 0.00 47 1010.3
20260508152152 69 231 11.0 17.0 0.00 0.00 0.00 47 1010.5
20260508151648 68 260 12.0 16.0 0.00 0.00 0.00 50 1010.8
20260508151145 68 224 15.0 19.0 0.00 0.00 0.00 50 1010.7
20260508150642 67 220 9.0 18.0 0.00 0.00 0.00 51 1010.5
20260508150139 66 228 9.0 20.0 0.00 0.00 0.00 52 1010.6
20260508145635 66 229 8.0 18.0 0.00 0.00 0.00 53 1010.7
20260508145131 66 225 11.0 15.0 0.00 0.00 0.00 54 1010.5
20260508144629 65 221 13.0 15.0 0.00 0.00 0.00 55 1010.6
20260508144126 64 230 5.0 13.0 0.00 0.00 0.00 56 1010.6
20260508143624 64 221 8.0 14.0 0.00 0.00 0.00 56 1010.9
20260508143120 63 201 9.0 13.0 0.00 0.00 0.00 58 1010.6
20260508142617 62 199 9.0 18.0 0.00 0.00 0.00 59 1010.9
20260508142114 63 197 4.0 14.0 0.00 0.00 0.00 58 1010.9
20260508141610 62 223 10.0 17.0 0.00 0.00 0.00 59 1010.7
20260508141108 63 215 14.0 20.0 0.00 0.00 0.00 58 1010.8
20260508140605 62 214 11.0 20.0 0.00 0.00 0.00 59 1010.7
20260508135557 61 219 18.0 20.0 0.00 0.00 0.00 61 1010.8
20260508135053 61 229 14.0 15.0 0.00 0.00 0.00 61 1011.0
20260508134550 60 230 8.0 12.0 0.00 0.00 0.00 64 1011.1
20260508134047 59 225 7.0 15.0 0.00 0.00 0.00 64 1011.2
20260508133544 59 210 4.0 13.0 0.00 0.00 0.00 66 1010.9
20260508133041 59 221 8.0 15.0 0.00 0.00 0.00 65 1010.8
20260508132539 58 222 7.0 11.0 0.00 0.00 0.00 67 1010.9
20260508132035 56 223 9.0 10.0 0.00 0.00 0.00 69 1010.6
20260508131531 56 220 4.0 9.0 0.00 0.00 0.00 69 1010.8
20260508131028 56 217 3.0 8.0 0.00 0.00 0.00 70 1010.7
20260508130525 55 202 3.0 7.0 0.00 0.00 0.00 72 1010.7
20260508130021 54 214 4.0 7.0 0.00 0.00 0.00 74 1011.1
20260508125511 53 68 1.0 3.0 0.00 0.00 0.00 75 1011.2
20260508125009 53 18 3.0 4.0 0.00 0.00 0.00 74 1010.8
20260508124507 53 0 1.0 2.0 0.00 0.00 0.00 74 1010.8
20260508124004 53 89 0.0 5.0 0.00 0.00 0.00 74 1010.5
20260508123503 52 117 4.0 6.0 0.00 0.00 0.00 74 1010.3
20260508122959 52 111 3.0 6.0 0.00 0.00 0.00 74 1010.3
20260508122455 51 136 2.0 6.0 0.00 0.00 0.00 75 1010.3
20260508121952 51 139 3.0 6.0 0.00 0.00 0.00 76 1010.0
20260508121451 51 168 4.0 6.0 0.00 0.00 0.00 76 1009.8
20260508120948 51 183 3.0 5.0 0.00 0.00 0.00 76 1009.8
20260508120446 51 168 4.0 9.0 0.00 0.00 0.00 76 1009.8
20260508115944 51 177 3.0 7.0 0.00 0.00 0.00 76 1010.1
20260508115441 51 171 5.0 7.0 0.00 0.00 0.00 75 1009.9
20260508114937 51 175 3.0 6.0 0.00 0.00 0.00 75 1009.9
20260508114435 51 152 3.0 8.0 0.00 0.00 0.00 75 1009.9
20260508113931 51 182 2.0 6.0 0.00 0.00 0.00 74 1010.0
20260508113429 52 211 5.0 11.0 0.00 0.00 0.00 74 1010.0
20260508112926 53 201 6.0 10.0 0.00 0.00 0.00 73 1010.0
20260508112422 53 213 7.0 10.0 0.00 0.00 0.00 72 1010.0
20260508111919 53 215 4.0 10.0 0.00 0.00 0.00 72 1010.1
20260508111416 53 220 7.0 11.0 0.00 0.00 0.00 72 1010.1
20260508110913 53 229 7.0 13.0 0.00 0.00 0.00 72 1010.0
20260508110411 53 221 9.0 13.0 0.00 0.00 0.00 71 1010.0
20260508105910 54 228 8.0 12.0 0.00 0.00 0.00 71 1010.1
20260508105407 53 214 8.0 10.0 0.00 0.00 0.00 71 1010.1
20260508104904 54 223 7.0 11.0 0.00 0.00 0.00 70 1010.0
20260508104401 54 218 10.0 12.0 0.00 0.00 0.00 70 1010.1
20260508103858 54 214 6.0 13.0 0.00 0.00 0.00 69 1010.3
20260508103355 55 223 9.0 14.0 0.00 0.00 0.00 68 1010.2
20260508102853 55 215 6.0 12.0 0.00 0.00 0.00 69 1010.2
20260508102351 55 222 6.0 11.0 0.00 0.00 0.00 68 1010.3
20260508101848 55 225 9.0 14.0 0.00 0.00 0.00 67 1010.3
20260508101345 55 226 12.0 13.0 0.00 0.00 0.00 67 1010.3
20260508100842 55 229 8.0 16.0 0.00 0.00 0.00 66 1010.1
20260508100341 55 226 11.0 17.0 0.00 0.00 0.00 66 1010.3
20260508095836 56 224 11.0 20.0 0.00 0.00 0.00 65 1010.3
20260508095334 56 220 10.0 17.0 0.00 0.00 0.00 65 1010.2
20260508094831 56 228 11.0 22.0 0.00 0.00 0.00 64 1010.2
20260508094328 56 217 10.0 20.0 0.00 0.00 0.00 64 1010.1
20260508093825 56 209 12.0 21.0 0.00 0.00 0.00 64 1010.2
20260508093322 56 212 16.0 19.0 0.00 0.00 0.00 64 1010.6
20260508092820 55 223 11.0 17.0 0.00 0.00 0.00 64 1010.5
20260508092318 56 222 12.0 18.0 0.00 0.00 0.00 63 1010.6
20260508091815 55 219 8.0 15.0 0.00 0.00 0.00 62 1010.3
20260508091311 55 219 8.0 15.0 0.00 0.00 0.00 62 1010.5
20260508090810 55 209 6.0 14.0 0.00 0.00 0.00 62 1010.8
20260508090308 55 216 7.0 14.0 0.00 0.00 0.00 61 1010.8
20260508085803 56 208 9.0 17.0 0.00 0.00 0.00 61 1010.7
20260508085300 56 219 11.0 14.0 0.00 0.00 0.00 61 1010.5
20260508084756 56 213 9.0 20.0 0.00 0.00 0.00 60 1010.7
20260508084254 56 219 8.0 16.0 0.00 0.00 0.00 59 1010.8
20260508083751 55 205 6.0 16.0 0.00 0.00 0.00 59 1010.7
20260508083249 56 210 9.0 19.0 0.00 0.00 0.00 58 1010.6
20260508082748 56 202 9.0 11.0 0.00 0.00 0.00 58 1010.5
20260508082246 56 201 5.0 15.0 0.00 0.00 0.00 57 1010.5
20260508081743 56 208 9.0 15.0 0.00 0.00 0.00 57 1010.5
20260508081240 56 214 7.0 13.0 0.00 0.00 0.00 56 1010.3
20260508080737 56 183 4.0 13.0 0.00 0.00 0.00 55 1010.9
20260508080235 56 185 6.0 14.0 0.00 0.00 0.00 55 1010.9
20260508075731 56 213 6.0 13.0 0.00 0.00 0.00 54 1010.7
20260508075228 55 200 5.0 9.0 0.00 0.00 0.00 54 1010.7
20260508074726 55 208 5.0 10.0 0.00 0.00 0.00 54 1010.6
20260508074223 55 206 4.0 8.0 0.00 0.00 0.00 53 1011.0
20260508073720 55 186 7.0 10.0 0.00 0.00 0.00 53 1011.0
20260508073218 55 180 5.0 9.0 0.00 0.00 0.00 52 1010.8
20260508072714 56 182 6.0 10.0 0.00 0.00 0.00 51 1011.0
20260508072210 56 189 5.0 9.0 0.00 0.00 0.00 51 1010.8
20260508071708 56 186 8.0 9.0 0.00 0.00 0.00 50 1010.9
20260508071206 56 193 7.0 9.0 0.00 0.00 0.00 50 1011.1
20260508070703 57 196 5.0 9.0 0.00 0.00 0.00 49 1011.0
20260508070202 57 179 4.0 9.0 0.00 0.00 0.00 49 1010.9
20260508065659 57 185 5.0 10.0 0.00 0.00 0.00 49 1010.9
20260508065157 57 208 5.0 9.0 0.00 0.00 0.00 49 1011.2
20260508064654 57 179 5.0 8.0 0.00 0.00 0.00 49 1011.3
20260508064152 57 208 3.0 10.0 0.00 0.00 0.00 48 1011.2
20260508063649 57 197 5.0 10.0 0.00 0.00 0.00 48 1011.1
20260508063147 57 208 4.0 11.0 0.00 0.00 0.00 48 1011.1
20260508062644 57 200 5.0 9.0 0.00 0.00 0.00 48 1011.2
20260508062141 58 192 3.0 13.0 0.00 0.00 0.00 47 1011.6
20260508061638 58 189 6.0 10.0 0.00 0.00 0.00 47 1011.3
20260508061136 59 203 7.0 11.0 0.00 0.00 0.00 46 1011.3
20260508060632 59 191 6.0 13.0 0.00 0.00 0.00 45 1011.3
20260508060129 59 190 6.0 14.0 0.00 0.00 0.00 45 1011.3
20260508055625 60 192 6.0 15.0 0.00 0.00 0.00 44 1011.3
20260508055122 60 190 11.0 17.0 0.00 0.00 0.00 44 1011.1
20260508054619 60 196 8.0 13.0 0.00 0.00 0.00 44 1011.5
20260508054116 60 181 4.0 12.0 0.00 0.00 0.00 44 1011.6
20260508053613 60 188 5.0 10.0 0.00 0.00 0.00 43 1011.5
20260508053111 60 173 5.0 11.0 0.00 0.00 0.00 43 1011.8
20260508052608 61 176 9.0 10.0 0.00 0.00 0.00 43 1011.9
20260508052105 61 164 6.0 11.0 0.00 0.00 0.00 42 1011.6
20260508051601 61 162 6.0 16.0 0.00 0.00 0.00 42 1011.8
20260508051056 61 174 6.0 15.0 0.00 0.00 0.00 42 1011.8
20260508050553 61 194 4.0 11.0 0.00 0.00 0.00 41 1011.6
20260508050050 61 170 7.0 10.0 0.00 0.00 0.00 41 1011.8
20260508045546 61 184 6.0 9.0 0.00 0.00 0.00 41 1011.9
20260508045044 61 180 5.0 9.0 0.00 0.00 0.00 41 1012.0
20260508044541 62 180 5.0 12.0 0.00 0.00 0.00 40 1011.9
20260508044037 62 195 5.0 11.0 0.00 0.00 0.00 40 1012.1
20260508043534 62 173 8.0 11.0 0.00 0.00 0.00 39 1011.9
20260508043031 62 152 4.0 11.0 0.00 0.00 0.00 39 1011.9
20260508042528 62 176 6.0 14.0 0.00 0.00 0.00 38 1012.0
20260508042025 63 166 8.0 11.0 0.00 0.00 0.00 38 1011.9
20260508041521 62 188 6.0 11.0 0.00 0.00 0.00 38 1012.0
20260508041018 63 179 5.0 11.0 0.00 0.00 0.00 37 1012.2
20260508040515 63 163 6.0 11.0 0.00 0.00 0.00 37 1011.9
20260508040013 63 159 4.0 10.0 0.00 0.00 0.00 37 1012.0
20260508035509 63 167 4.0 9.0 0.00 0.00 0.00 36 1011.9
20260508035006 63 189 4.0 10.0 0.00 0.00 0.00 36 1012.1
20260508034504 63 167 3.0 8.0 0.00 0.00 0.00 36 1011.7
20260508034001 63 157 5.0 8.0 0.00 0.00 0.00 36 1011.9
20260508033458 63 171 4.0 9.0 0.00 0.00 0.00 35 1011.8
20260508032955 63 168 3.0 8.0 0.00 0.00 0.00 35 1011.7
20260508032453 63 183 3.0 7.0 0.00 0.00 0.00 35 1011.7
20260508031949 63 167 5.0 7.0 0.00 0.00 0.00 34 1011.7
20260508031447 64 200 3.0 8.0 0.00 0.00 0.00 33 1011.8
20260508030942 64 150 3.0 7.0 0.00 0.00 0.00 32 1011.6
20260508030440 64 182 4.0 7.0 0.00 0.00 0.00 32 1011.5
20260508025937 64 177 3.0 8.0 0.00 0.00 0.00 31 1011.3
20260508025433 65 157 2.0 9.0 0.00 0.00 0.00 30 1011.1
20260508024931 65 177 2.0 8.0 0.00 0.00 0.00 30 1011.2
20260508024427 65 151 4.0 8.0 0.00 0.00 0.00 29 1011.1
20260508023923 66 180 5.0 7.0 0.00 0.00 0.00 29 1011.0
20260508023420 66 211 3.0 8.0 0.00 0.00 0.00 28 1011.1
20260508022917 66 168 6.0 13.0 0.00 0.00 0.00 28 1011.1
20260508022413 66 140 3.0 7.0 0.00 0.00 0.00 28 1010.8
20260508021910 66 175 4.0 7.0 0.00 0.00 0.00 28 1011.0
20260508021406 67 167 3.0 7.0 0.00 0.00 0.00 27 1010.9
20260508020902 68 184 3.0 7.0 0.00 0.00 0.00 27 1010.8
20260508020400 68 161 2.0 7.0 0.00 0.00 0.00 27 1010.9
20260508015857 68 181 3.0 6.0 0.00 0.00 0.00 27 1010.7
20260508015355 68 184 2.0 5.0 0.00 0.00 0.00 26 1010.8
20260508014851 69 221 3.0 5.0 0.00 0.00 0.00 26 1010.7
20260508014349 70 197 5.0 7.0 0.00 0.00 0.00 25 1010.6
20260508013843 71 202 5.0 7.0 0.00 0.00 0.00 25 1010.5
20260508013340 71 202 9.0 9.0 0.00 0.00 0.00 25 1010.7
20260508012837 72 219 6.0 10.0 0.00 0.00 0.00 24 1010.7
20260508012335 72 224 8.0 10.0 0.00 0.00 0.00 24 1010.7
20260508011832 73 228 5.0 11.0 0.00 0.00 0.00 24 1010.8
20260508011330 73 210 6.0 11.0 0.00 0.00 0.00 23 1010.6
20260508010821 74 223 8.0 17.0 0.00 0.00 0.00 23 1010.8
20260508010319 74 226 17.0 20.0 0.00 0.00 0.00 23 1010.5